sat.trackr.live / text

‹ back to catalog

STARLINK-3004

NORAD 48880 · 2021-059B

PAYLOAD ACTIVE UNKNOWN

§ Identity

Operator
Country
US
Launch date
2021-06-30
Launch site
AFETR
Launch vehicle
Mass (kg)
RCS (m²)

Purposes: comms

External: N2YO · Heavens-Above · Gunter

§ Orbital elements

Epoch: 2026-05-25T02:19:31.952640Z

Period
90.34 min
Inclination
97.6611°
Eccentricity
0.0001749
Mean motion
15.93913786 rev/d
Perigee alt
290.2 km
Apogee alt
292.5 km
Semi-major
6,669.5 km
B*
3.5069e-3
RAAN
274.0524°
Arg perigee
63.3487°
Mean anomaly
296.7966°
Rev number
27,048

§ Raw data

STARLINK-30041 48880U 21059B   26145.09689760  .01261340  76198-3  35069-2 0  99942 48880  97.6611 274.0524 0001749  63.3487 296.7966 15.93913786270484

JSON: /api/v1/satellites/48880 · /tle

For live sub-satellite position, see the globe view (requires WebGL).

§ Visibility from observer

Set your observer location to see the next 7 days of passes ≥ 10°. The values pass through the URL so the page stays shareable.

No JS? Fill the form by hand. The geolocation button needs JavaScript.